Wind_Speed
47 47 47 47 46 45 45 45 46 47 47 49 49 49 49 49 48 48 48 49 51 53 53 51 49 49 50 51 52 51 50 50 49 47 47 46 45 46 45 45 46 46 44
48 47 46 46 44 44 44 44 44 45 45 46 46 47 47 47 47 47 47 47 49 51 52 50 48 48 49 50 51 50 49 48 47 46 46 45 45 45 44 44 44 45 45
47 46 45 44 43 43 42 42 42 42 42 42 43 43 44 44 44 44 46 46 47 48 48 47 46 47 47 49 50 49 47 47 46 45 46 45 44 43 43 44 43 43 42
47 46 45 43 42 42 41 41 40 40 40 40 40 40 40 41 41 41 43 44 45 46 45 45 45 45 46 47 47 47 46 44 45 45 45 44 43 42 42 42 41 41 40
47 46 44 42 41 40 40 39 39 38 38 37 36 35 36 37 38 39 40 41 42 44 44 43 43 42 43 44 44 45 45 43 43 45 45 43 42 42 42 40 40 39 40
46 44 42 40 39 38 37 37 37 36 35 34 33 33 33 34 35 35 36 37 40 42 42 40 40 40 41 43 43 43 43 41 41 44 44 42 40 40 39 38 38 38 39
45 42 40 38 37 35 34 34 34 33 32 31 30 29 29 30 31 33 34 36 38 39 40 38 38 40 40 40 40 41 41 40 40 42 43 42 41 39 38 37 36 37 37
43 40 38 36 34 33 33 32 31 30 28 28 26 27 27 27 29 30 32 34 35 36 37 36 37 38 38 38 39 40 40 39 40 40 40 40 41 40 38 36 35 35 34
41 38 35 34 32 31 30 29 29 27 25 24 24 24 24 25 27 28 30 31 33 34 34 35 37 36 36 36 37 38 38 38 38 37 38 39 40 39 36 35 34 33 31
39 36 34 32 31 30 29 28 27 25 23 22 21 20 21 21 23 26 28 30 31 31 32 33 34 34 34 35 35 35 35 36 36 36 37 37 38 37 35 34 33 31 30
37 34 32 31 30 28 28 27 25 24 22 21 20 20 19 20 23 25 26 27 28 29 30 31 32 33 32 32 33 33 33 34 34 35 36 36 36 35 34 33 31 29 28
34 32 31 29 28 28 26 24 23 22 22 20 18 18 18 18 18 22 24 24 27 28 29 29 29 30 30 31 32 32 32 33 33 34 34 33 33 32 32 31 29 27 26
33 31 29 27 26 26 24 22 21 21 20 19 18 16 16 17 18 19 21 23 24 26 28 28 28 28 29 30 31 31 31 31 31 31 30 29 29 29 29 29 28 27 27
32 31 30 27 25 24 23 21 20 19 18 17 16 14 14 14 15 18 20 22 23 25 25 27 27 26 27 28 29 29 29 27 27 27 26 27 27 28 27 26 26 26 26
33 32 30 27 26 24 22 21 20 19 18 16 14 12 11 12 14 16 19 21 23 24 25 25 25 24 25 26 26 25 25 25 25 25 25 26 26 26 25 24 24 24 24
33 31 29 27 25 23 21 19 17 16 14 13 12 11 12 13 15 15 18 19 21 22 23 23 24 23 24 24 24 23 24 22 22 23 24 24 24 24 23 23 23 22 22
31 29 27 25 22 20 17 15 14 13 12 11 11 11 12 13 14 14 16 18 20 21 22 22 22 21 21 21 22 22 22 22 22 22 22 23 23 22 22 22 21 21 21
28 27 25 20 17 15 14 13 12 11 11 11 12 12 13 14 15 16 17 18 19 20 20 21 21 20 19 19 20 21 21 21 21 21 21 22 21 21 21 20 20 20 19
25 24 21 17 15 13 12 12 12 11 10 10 12 13 13 14 16 16 17 18 19 20 20 20 21 20 20 19 19 20 20 21 21 21 21 20 20 19 19 19 19 19 19
23 21 19 16 14 13 12 11 11 10 10 10 11 12 13 14 15 16 17 17 19 19 19 19 20 20 19 19 19 19 20 21 21 21 20 19 18 18 18 18 18 18 17
21 19 17 15 14 13 12 11 11 10 10 10 10 11 13 14 15 17 17 18 19 18 18 18 19 19 18 18 18 18 18 19 20 19 18 17 17 17 16 16 16 16 15
19 17 16 14 13 13 12 11 10 9 9 10 10 12 13 14 15 16 16 18 18 18 17 18 18 18 18 17 17 17 17 18 18 18 17 16 16 16 15 14 14 13 12
18 16 14 13 12 12 11 11 10 10 10 10 11 12 13 14 15 15 15 16 17 17 16 16 17 18 18 17 17 16 16 16 16 16 16 15 15 15 14 14 12 11 10
16 14 13 12 11 11 10 10 10 10 10 11 11 12 14 14 15 15 16 15 15 16 17 17 17 18 18 17 17 16 16 16 15 15 14 14 14 14 14 13 11 10 10
14 12 11 11 10 9 10 10 11 11 11 11 12 13 14 16 16 16 16 15 15 15 16 18 18 17 17 17 16 16 15 14 14 14 13 13 13 13 13 12 11 10 10
12 11 10 9 9 9 9 10 11 12 12 12 12 14 15 16 16 17 17 16 15 15 15 16 18 18 17 17 16 15 15 14 14 13 13 13 13 13 12 11 10 9 9
Wind_Direction
302 300 298 295 293 291 289 286 283 279 276 274 271 269 267 264 261 258 255 251 246 244 243 244 246 245 243 243 242 242 243 243 242 242 242 242 244 247 248 251 253 255 257
303 301 298 296 294 292 291 290 286 282 279 276 273 269 266 262 259 257 252 250 246 244 242 243 244 244 242 241 241 241 241 241 241 240 240 241 243 245 247 249 252 254 256
304 302 299 297 295 293 293 291 287 284 280 277 274 269 265 261 257 255 251 248 246 243 241 241 242 242 240 240 239 239 239 240 240 239 239 240 242 244 247 249 251 254 256
305 303 300 297 295 294 293 292 289 285 281 278 274 269 263 258 256 255 250 247 244 240 239 239 240 240 239 237 236 237 238 239 239 238 238 239 241 244 246 249 251 252 255
306 304 301 297 295 295 293 292 289 285 282 279 274 269 263 258 255 253 249 246 241 236 236 237 237 236 235 234 234 236 237 239 239 237 237 238 241 243 244 247 251 252 255
307 304 301 297 295 295 294 293 290 287 283 279 274 268 263 257 253 251 247 243 239 234 232 232 233 233 232 231 232 235 236 237 237 236 236 238 241 243 244 247 250 252 256
307 305 302 300 296 296 295 294 292 290 285 280 275 268 263 255 250 247 243 238 233 230 229 230 232 231 230 230 232 233 233 235 235 235 236 238 239 241 243 246 249 254 256
309 305 303 300 297 296 295 294 293 292 287 282 275 269 263 254 249 245 239 233 227 226 228 229 228 227 227 228 229 229 229 231 233 234 237 238 238 240 242 245 249 253 255
309 305 303 301 300 298 296 295 295 291 286 281 277 272 264 255 248 241 236 231 227 228 229 229 226 226 226 227 227 226 228 230 231 234 236 237 237 238 242 244 247 250 253
310 306 303 301 301 299 297 297 295 290 285 280 278 272 263 253 245 238 235 230 228 228 226 225 224 224 226 226 227 229 231 232 233 235 237 238 239 240 243 244 247 247 252
311 308 303 300 301 301 299 297 293 289 284 279 272 267 259 252 244 237 232 227 224 221 219 219 221 223 224 226 227 230 231 231 232 234 236 238 240 241 243 243 244 248 253
310 309 305 302 300 300 298 296 292 288 284 278 273 264 254 248 241 231 224 221 218 217 215 214 218 221 222 224 225 227 229 232 233 235 236 238 239 240 242 241 245 249 254
308 308 307 303 301 300 297 293 290 286 281 276 270 262 249 242 234 224 218 215 214 213 211 211 215 219 220 222 223 225 227 230 232 232 234 236 237 239 242 243 245 250 256
305 307 306 304 301 298 296 292 288 284 279 275 270 259 245 235 227 221 216 214 213 211 212 213 216 220 222 224 224 223 224 227 229 231 232 234 237 239 241 242 244 248 254
306 306 305 302 300 296 293 290 286 283 280 272 265 254 242 233 227 222 216 214 215 215 215 217 218 221 220 220 220 220 221 223 226 230 232 235 237 237 239 241 244 249 255
306 305 304 301 298 294 289 284 281 277 271 265 256 246 236 229 224 219 215 214 215 215 215 215 216 215 216 218 218 219 219 220 224 228 230 233 235 237 240 243 246 249 255
305 305 304 300 295 291 285 279 273 269 266 258 246 235 227 222 218 216 214 211 210 211 212 212 212 212 213 216 218 218 217 219 223 225 227 230 234 237 241 242 244 247 254
304 304 303 299 293 289 285 283 276 266 260 252 241 234 227 220 216 212 208 205 205 206 208 210 211 212 213 213 214 215 216 219 222 225 228 230 233 235 237 238 241 246 252
303 303 303 298 293 289 286 283 278 270 261 250 237 230 223 215 209 206 203 202 201 203 205 208 209 212 212 211 212 214 218 221 224 226 227 227 228 230 233 236 240 244 248
302 301 299 295 291 286 281 278 274 265 254 244 232 225 218 212 206 203 202 201 200 201 204 208 209 210 212 213 213 215 219 221 222 222 222 222 224 229 231 233 238 242 246
301 299 296 294 287 281 275 270 267 260 247 238 228 218 212 209 206 203 201 202 201 202 205 208 209 210 210 210 211 213 214 215 215 215 216 219 222 225 227 231 234 237 244
296 293 293 291 283 276 269 263 260 252 236 226 220 215 211 208 203 201 201 200 200 202 204 206 207 207 207 205 204 204 204 207 208 208 210 215 220 221 224 226 228 235 247
290 288 290 287 277 268 261 254 248 240 228 219 211 207 205 204 200 196 197 197 198 201 201 202 201 196 196 195 196 198 199 203 205 207 211 215 217 217 218 223 229 237 248
286 285 285 283 275 264 253 246 237 228 220 214 210 206 203 202 197 195 194 194 194 195 194 192 190 188 189 192 194 196 197 199 202 206 210 215 215 214 216 220 227 239 250
283 281 280 279 272 260 249 238 231 225 221 216 211 207 204 201 198 196 191 189 189 189 190 189 187 186 186 189 190 191 192 196 201 206 211 213 213 212 215 221 231 243 250
279 277 276 274 267 259 248 234 227 224 219 215 213 208 203 197 194 192 187 186 184 183 184 187 187 185 185 186 190 193 197 200 203 206 211 213 213 213 216 223 231 238 246
Height
5556 5551 5546 5542 5537 5533 5530 5527 5523 5521 5518 5517 5517 5518 5519 5521 5523 5526 5529 5534 5539 5545 5551 5557 5564 5569 5575 5582 5588 5594 5601 5607 5615 5623 5628 5634 5639 5645 5650 5654 5658 5661 5664
5544 5538 5534 5529 5525 5521 5517 5513 5509 5506 5504 5502 5502 5502 5504 5506 5508 5511 5515 5520 5525 5531 5538 5544 5551 5556 5563 5569 5576 5582 5589 5596 5603 5610 5617 5623 5628 5633 5639 5643 5647 5650 5653
5532 5526 5521 5517 5512 5508 5505 5501 5497 5493 5491 5489 5488 5488 5489 5491 5494 5497 5501 5507 5513 5519 5526 5532 5539 5544 5551 5557 5564 5571 5578 5585 5591 5598 5606 5613 5618 5623 5628 5632 5636 5640 5643
5521 5515 5510 5505 5501 5497 5493 5489 5485 5482 5479 5477 5475 5475 5476 5478 5482 5485 5488 5494 5500 5507 5514 5521 5527 5533 5540 5546 5553 5561 5568 5574 5580 5588 5595 5602 5607 5613 5617 5622 5626 5630 5633
5509 5503 5498 5494 5490 5486 5483 5479 5475 5471 5468 5466 5464 5464 5464 5467 5470 5473 5476 5481 5488 5496 5503 5510 5517 5523 5530 5536 5543 5551 5557 5564 5570 5577 5585 5591 5597 5602 5608 5612 5616 5620 5623
5498 5492 5487 5483 5480 5476 5473 5469 5465 5462 5459 5456 5455 5454 5455 5458 5460 5462 5466 5471 5478 5486 5494 5501 5507 5513 5520 5527 5534 5541 5548 5554 5561 5568 5574 5581 5588 5593 5598 5602 5606 5610 5614
5488 5482 5477 5473 5470 5467 5463 5460 5456 5453 5450 5449 5447 5447 5448 5450 5451 5454 5458 5462 5469 5477 5484 5491 5498 5505 5511 5518 5525 5531 5539 5545 5552 5560 5566 5572 5579 5584 5589 5593 5597 5601 5604
5478 5473 5468 5464 5461 5458 5455 5452 5448 5446 5443 5441 5440 5440 5441 5443 5445 5447 5450 5455 5462 5469 5476 5483 5490 5497 5503 5510 5517 5524 5531 5538 5545 5551 5558 5564 5570 5574 5579 5584 5588 5591 5594
5470 5464 5460 5457 5454 5451 5447 5445 5441 5439 5437 5436 5435 5434 5435 5436 5438 5441 5444 5449 5455 5462 5469 5476 5482 5489 5496 5502 5509 5516 5523 5530 5536 5542 5549 5555 5560 5566 5570 5575 5579 5582 5585
5461 5456 5453 5449 5446 5443 5440 5438 5435 5433 5432 5431 5430 5430 5430 5431 5433 5435 5439 5443 5449 5455 5462 5469 5475 5482 5489 5495 5502 5509 5516 5523 5528 5534 5540 5546 5551 5557 5562 5566 5571 5574 5578
5454 5449 5446 5442 5439 5436 5434 5431 5429 5427 5426 5426 5425 5425 5425 5427 5428 5431 5435 5439 5444 5450 5457 5463 5470 5477 5483 5489 5495 5502 5509 5515 5521 5527 5533 5538 5544 5549 5554 5558 5563 5567 5570
5448 5444 5440 5436 5433 5430 5428 5426 5424 5423 5422 5421 5421 5422 5422 5423 5425 5427 5431 5435 5441 5446 5453 5459 5465 5471 5477 5483 5489 5495 5501 5507 5513 5519 5525 5531 5536 5542 5546 5551 5555 5559 5562
5442 5439 5435 5431 5427 5424 5422 5421 5419 5418 5417 5417 5418 5418 5419 5420 5422 5424 5428 5433 5438 5443 5449 5455 5461 5466 5472 5477 5483 5489 5495 5501 5507 5513 5518 5524 5529 5534 5539 5543 5547 5551 5554
5436 5433 5429 5425 5422 5420 5417 5415 5414 5413 5413 5413 5413 5414 5415 5417 5419 5422 5425 5430 5435 5440 5445 5451 5456 5461 5467 5472 5478 5483 5489 5495 5501 5507 5512 5517 5522 5527 5531 5536 5540 5544 5547
5429 5426 5422 5419 5417 5414 5412 5410 5409 5408 5407 5408 5409 5410 5412 5414 5416 5419 5423 5428 5432 5437 5442 5447 5452 5457 5462 5468 5473 5478 5484 5489 5495 5501 5506 5511 5515 5520 5524 5529 5533 5536 5539
5422 5419 5415 5412 5410 5408 5406 5406 5404 5403 5403 5404 5405 5407 5409 5411 5414 5417 5420 5424 5429 5433 5438 5443 5448 5453 5458 5463 5469 5474 5479 5485 5490 5495 5500 5505 5509 5514 5518 5522 5526 5529 5531
5415 5412 5408 5406 5404 5402 5401 5401 5401 5400 5400 5400 5402 5404 5406 5408 5411 5414 5418 5422 5426 5430 5435 5440 5445 5449 5454 5459 5464 5470 5475 5480 5485 5490 5494 5499 5504 5508 5512 5516 5519 5522 5524
5408 5405 5402 5400 5398 5397 5397 5396 5396 5397 5397 5398 5399 5400 5403 5405 5408 5411 5415 5419 5423 5427 5432 5437 5442 5446 5451 5456 5461 5466 5470 5475 5480 5485 5489 5494 5498 5502 5506 5510 5513 5516 5518
5402 5400 5397 5395 5394 5393 5393 5393 5393 5393 5394 5395 5395 5397 5399 5402 5405 5409 5412 5416 5420 5424 5429 5434 5438 5443 5447 5452 5457 5461 5466 5471 5476 5480 5485 5489 5493 5497 5500 5504 5507 5509 5511
5396 5394 5392 5391 5390 5389 5389 5389 5389 5390 5390 5391 5393 5395 5397 5400 5403 5406 5409 5413 5417 5421 5426 5430 5435 5439 5444 5448 5453 5457 5462 5466 5471 5476 5480 5484 5488 5492 5495 5499 5501 5504 5506
5391 5389 5387 5386 5385 5385 5385 5385 5386 5387 5388 5389 5390 5392 5394 5397 5401 5404 5407 5411 5415 5419 5423 5427 5432 5436 5441 5445 5450 5454 5458 5462 5467 5472 5476 5480 5484 5487 5491 5494 5496 5499 5501
5385 5384 5383 5382 5381 5381 5381 5382 5382 5383 5385 5386 5388 5390 5392 5395 5398 5401 5404 5408 5412 5416 5420 5425 5429 5433 5438 5442 5446 5450 5455 5459 5464 5468 5473 5476 5480 5483 5486 5489 5492 5494 5496
5380 5379 5378 5377 5377 5377 5377 5378 5379 5380 5382 5384 5386 5388 5390 5393 5396 5399 5402 5406 5410 5414 5418 5422 5426 5431 5435 5440 5444 5449 5453 5457 5462 5466 5470 5473 5476 5480 5483 5485 5488 5491 5492
5376 5375 5374 5373 5373 5373 5373 5374 5376 5377 5379 5381 5383 5386 5388 5391 5394 5397 5401 5404 5408 5412 5416 5420 5425 5429 5434 5438 5443 5447 5451 5455 5459 5463 5467 5470 5473 5476 5479 5482 5485 5487 5489
5371 5370 5370 5369 5369 5369 5370 5371 5372 5374 5376 5379 5381 5383 5386 5389 5392 5396 5399 5403 5407 5411 5415 5419 5424 5428 5433 5437 5441 5445 5449 5453 5457 5461 5464 5467 5470 5473 5476 5479 5482 5483 5485
5367 5366 5366 5366 5365 5366 5366 5367 5369 5371 5373 5376 5378 5381 5383 5387 5390 5394 5398 5402 5406 5410 5414 5418 5423 5427 5432 5436 5440 5444 5448 5452 5455 5459 5462 5465 5468 5470 5473 5476 5478 5480 5482